Weather Roundup
Issued by NWS

Home | Current Version | Previous Version | Text Only | Print | Product List | Glossary On
Versions: 1 2 3 4 5 6 7 8 9 10 11 12 13 14 15 16 17 18 19 20 21 22 23 24 25 26 27 28 29 30 31 32 33 34 35 36 37 38 39 40 41 42 43 44 45 46 47 48 49 50
577
NZUS93 KARX 271910
HRRWXR

CURRENT HOURLY OBSERVATIONS ACROSS
MUCH OF THE UPPER MISSISSIPPI VALLEY
NATIONAL WEATHER SERVICE LA CROSSE WI
100 PM CST MON FEB 27 2017


...SOUTHEAST MINNESOTA...


CITY           SKY/WX    TMP DP  RH WIND       PRES   REMARKS
ROCHESTER      SUNNY     35  25  66 S10       29.99F WCI  27
ROCHESTER/MAYO FAIR      38  22  51 S14G20    29.99F WCI  30
WINONA         SUNNY     41  23  48 S6        30.03F
AUSTIN         SUNNY     36  25  64 S6        29.98F WCI  31
ALBERT LEA     SUNNY     37  23  56 SE12      29.95F WCI  30
DODGE CENTER   NOT AVBL
PRESTON        SUNNY     37  26  63 S10       30.01F WCI  30
OWATONNA       CLOUDY    37  21  52 S13       29.96F WCI  29
FARIBAULT      CLOUDY    36  25  64 S12G17    29.97F WCI  27
$$

...ELSEWHERE IN MINNESOTA...


CITY           SKY/WX    TMP DP  RH WIND       PRES   REMARKS
MINNEAPOLIS    CLOUDY    43  17  35 S17G25    29.95F
INTNL FALLS    MOSUNNY   24   9  52 VRB6      29.90F WCI  17
DULUTH         CLOUDY    28  22  78 S7        29.91F WCI  21
RED WING       CLOUDY    39  19  45 S7        29.99F WCI  34
REDWOOD FALLS  CLOUDY    44  23  43 SW13      29.89F
MANKATO          N/A     37  25  61 S10G18    29.95F WCI  30
WORTHINGTON    NOT AVBL
FAIRMONT       SUNNY     35  25  66 S13       29.93F WCI  26
$$

...SOUTHWEST WISCONSIN...


CITY           SKY/WX    TMP DP  RH WIND       PRES   REMARKS
LA CROSSE      SUNNY     44  24  45 S8        30.03F
PRAIRIE DU CHI MOSUNNY   45  33  61 S7        30.04F
BOSCOBEL       MOSUNNY   46  33  60 SW9       30.05F
LONE ROCK      SUNNY     46  32  58 S10       30.05F
PLATTEVILLE    SUNNY     45  37  74 S13       30.05F
FORT MC COY    SUNNY     43  22  42 S6        30.04F
CAMP DOUGLAS   MOSUNNY   41  21  45 S9        30.03F
MAUSTON-NEW LI CLEAR     42  24  48 SE5       30.04F
VIROQUA        FAIR      41  28  59 S6        30.02F
WIS DELLS      PTSUNNY   39  28  63 S8        30.05F WCI  34
$$

...ELSEWHERE IN WISCONSIN...


CITY           SKY/WX    TMP DP  RH WIND       PRES   REMARKS
MILWAUKEE      PTSUNNY   46  31  55 SE8       30.12F
MADISON        PTSUNNY   43  30  60 S12       30.07F
GREEN BAY      SUNNY     39  26  59 S12       30.10F WCI  32
EAU CLAIRE     CLOUDY    38  21  50 S10       30.00F WCI  31
BLACK RVR FLS  FAIR      45  16  31 S7        30.03F
MEDFORD        SUNNY     34  21  59 S9        30.00F WCI  26
WAUSAU         SUNNY     38  18  44 S10       30.01F WCI  31
WIS RAPIDS     SUNNY     41  20  43 SW14      30.05F
MARSHFIELD     SUNNY     39  18  42 S8        30.01F WCI  33
RICE LAKE      MOSUNNY   40  21  48 S13       29.98F WCI  32
$$

...NORTHEAST IOWA...


CITY           SKY/WX    TMP DP  RH WIND       PRES   REMARKS
WATERLOO       SUNNY     47  35  63 S8        30.01F
DUBUQUE        MOSUNNY   46  36  68 S16       30.05F
DECORAH        SUNNY     43  32  65 S8        30.00F
MASON CITY     SUNNY     34  27  75 SE10      29.99F WCI  26
CHARLES CITY   SUNNY     39  34  81 S9        30.01F WCI  33
OELWEIN        MOSUNNY   45  37  76 S12G17    30.02F
$$

...ELSEWHERE IN IOWA...


CITY           SKY/WX    TMP DP  RH WIND       PRES   REMARKS
DES MOINES     CLOUDY    54  29  38 S13       29.98F
IOWA CITY      SUNNY     53  33  46 SE9       30.05F
FORT DODGE     SUNNY     43  25  49 S7        29.97F
MARSHALLTOWN   SUNNY     49  32  52 S10       29.98F
CEDAR RAPIDS   SUNNY     51  33  50 S14G22    30.02F
$$

...NORTHERN ILLINOIS...


CITY           SKY/WX    TMP DP  RH WIND       PRES   REMARKS
CHICAGO-OHARE  PTSUNNY   50  34  54 SW13G20   30.12F
CHICAGO-MIDWAY PTSUNNY   50  34  54 S8        30.13F
MOLINE         SUNNY     53  34  48 S12       30.06F
ROCKFORD       MOSUNNY   51  35  54 S14       30.11F
PEORIA         SUNNY     55  34  45 S13G21    30.09F
$$

NOTE: "FAIR" INDICATES FEW OR NO CLOUDS BELOW 12,000 FEET WITH NO
SIGNIFICANT WEATHER AND/OR OBSTRUCTIONS TO VISIBILITY. WIND
SPEEDS ARE IN MILES-PER-HOUR.




USA.gov is the U.S. government's official web portal to all federal, state and local government web resources and services.